Date String (YYYY-MM-DD hh:mm:ss) UTC,Instrument flags,Ambient pressure (hPa),Sample flow (lpm),Bypass flow (lpm),Sample temperature (°C),Ambient temperature (°C),ASC tube jacket temperature (°C),LED temperature (°C),Box temperature (°C),Sample RH (%),Span deviation,Mass concentration (μg/m³),Mass concentration (μg/m³),Mass concentration (μg/m³)
DateTimeUTC,F1_M11,P_M11,Q1_M11,Q2_M11,T1_M11,T2_M11,T3_M11,T4_M11,T5_M11,U1_M11,ZSPAN_M11,X0_M11,X2_M11,X1_M11
2023-02-14 04:00:00,,0807.4,5.00,0.00,23.8,22.0,00.0,32.7,25.6,12.1,0002.6,0024.31,0011.55,0009.93
2023-02-14 04:01:00,,0807.4,5.01,0.00,23.7,22.1,00.0,32.7,25.6,12.0,0001.4,0024.70,0011.36,0009.78
2023-02-14 04:02:00,,0807.4,4.99,0.00,23.7,22.1,00.0,32.7,25.6,12.0,0001.4,0024.18,0011.16,0009.62
2023-02-14 04:03:00,,0807.3,4.99,0.00,23.8,22.2,00.0,32.7,25.6,12.0,0003.1,0024.01,0010.84,0009.43
2023-02-14 04:04:00,,0807.3,5.00,0.00,23.8,22.2,00.0,32.7,25.6,12.0,0002.6,0023.05,0010.59,0009.21
2023-02-14 04:05:00,,0807.3,4.99,0.00,23.8,22.3,00.0,32.7,25.6,12.0,0002.1,0022.03,0010.38,0009.06
2023-02-14 04:06:00,,0807.2,4.98,0.00,23.8,22.3,00.0,32.6,25.6,12.0,0000.0,0021.77,0010.18,0008.92
2023-02-14 04:07:00,,0807.2,4.99,0.00,23.8,22.3,00.0,32.6,25.6,12.1,0000.0,0021.43,0009.95,0008.72
2023-02-14 04:08:00,,0807.2,5.00,0.00,23.8,22.3,00.0,32.6,25.6,12.1,0000.0,0020.47,0009.64,0008.48
2023-02-14 04:09:00,,0807.2,4.98,0.00,23.8,22.3,00.0,32.6,25.6,12.2,0000.0,0019.39,0009.25,0008.18
2023-02-14 04:10:00,,0807.3,4.99,0.00,23.8,22.3,00.0,32.6,25.6,12.3,0000.0,0018.52,0008.86,0007.86
2023-02-14 04:11:00,,0807.2,5.00,0.00,23.8,22.3,00.0,32.6,25.7,12.3,0000.0,0018.20,0008.53,0007.55
2023-02-14 04:12:00,,0807.2,5.00,0.00,23.8,22.3,00.0,32.6,25.6,12.2,0000.0,0017.55,0008.38,0007.40
2023-02-14 04:13:00,,0807.2,5.01,0.00,23.8,22.3,00.0,32.6,25.6,12.2,0000.0,0017.30,0008.26,0007.32
2023-02-14 04:14:00,,0807.2,4.98,0.00,23.8,22.3,00.0,32.6,25.6,12.1,0000.0,0018.33,0008.34,0007.37
2023-02-14 04:15:00,,0807.1,4.99,0.00,23.8,22.3,00.0,32.6,25.6,12.0,0000.0,0017.43,0008.56,0007.54
2023-02-14 04:16:00,,0807.1,4.98,0.00,23.8,22.3,00.0,32.6,25.6,11.9,0000.0,0017.25,0008.73,0007.68
2023-02-14 04:17:00,,0807.1,5.01,0.00,23.8,22.3,00.0,32.6,25.6,11.7,0000.0,0017.60,0008.95,0007.88
2023-02-14 04:18:00,,0807.1,5.01,0.00,23.8,22.3,00.0,32.6,25.6,11.5,0000.0,0017.98,0009.24,0008.17
2023-02-14 04:19:00,,0807.1,5.00,0.00,23.8,22.3,00.0,32.6,25.6,11.7,0000.0,0019.43,0009.60,0008.48
2023-02-14 04:20:00,,0807.1,5.02,0.00,23.8,22.2,00.0,32.6,25.6,11.6,0000.0,0020.65,0009.98,0008.78
2023-02-14 04:21:00,,0807.1,5.01,0.00,23.8,22.2,00.0,32.6,25.6,11.8,0001.7,0021.65,0010.35,0009.10
2023-02-14 04:22:00,,0807.1,5.00,0.00,23.8,22.1,00.0,32.6,25.6,11.9,0000.5,0021.98,0010.55,0009.28
2023-02-14 04:23:00,,0807.1,5.00,0.00,23.7,22.0,00.0,32.6,25.5,12.0,0000.0,0022.01,0010.67,0009.40
2023-02-14 04:24:00,,0807.0,5.00,0.00,23.7,21.9,00.0,32.6,25.5,12.1,0000.0,0021.61,0010.62,0009.34
2023-02-14 04:25:00,,0807.0,5.00,0.00,23.7,21.9,00.0,32.6,25.5,12.1,0000.0,0020.22,0010.45,0009.24
2023-02-14 04:26:00,,0806.9,5.00,0.00,23.7,21.9,00.0,32.6,25.5,12.1,0000.0,0020.43,0010.17,0009.04
2023-02-14 04:27:00,,0806.9,5.00,0.00,23.6,21.9,00.0,32.6,25.5,12.0,0000.0,0020.14,0009.96,0008.83
2023-02-14 04:28:00,,0806.9,5.00,0.00,23.6,21.8,00.0,32.6,25.4,12.0,0000.0,0019.92,0009.76,0008.63
2023-02-14 04:29:00,,0806.9,5.01,0.00,23.6,21.7,00.0,32.6,25.4,12.1,0000.0,0020.26,0009.57,0008.42
2023-02-14 04:30:00,,0806.8,4.99,0.00,23.6,21.6,00.0,32.5,25.3,12.1,0000.0,0020.24,0009.54,0008.32
2023-02-14 04:31:00,,0806.9,5.00,0.00,23.5,21.5,00.0,32.5,25.2,12.3,0000.0,0019.92,0009.36,0008.17
2023-02-14 04:32:00,,0806.8,5.01,0.00,23.5,21.5,00.0,32.5,25.2,12.4,0000.0,0019.37,0009.00,0007.86
2023-02-14 04:33:00,,0806.7,5.01,0.00,23.5,21.6,00.0,32.5,25.3,12.4,0000.0,0018.36,0008.70,0007.60
2023-02-14 04:34:00,,0806.7,5.01,0.00,23.5,21.7,00.0,32.5,25.3,12.4,0000.0,0018.04,0008.40,0007.32
2023-02-14 04:35:00,,0806.7,5.01,0.00,23.5,21.7,00.0,32.4,25.3,12.4,0000.0,0017.76,0008.17,0007.12
2023-02-14 04:36:00,,0806.5,4.99,0.00,23.5,21.6,00.0,32.4,25.2,12.6,0000.0,0017.61,0007.93,0006.90
2023-02-14 04:37:00,,0806.5,4.99,0.00,23.4,21.4,00.0,32.4,25.1,12.5,0000.0,0016.32,0007.65,0006.63
2023-02-14 04:38:00,,0806.4,5.01,0.00,23.3,21.2,00.0,32.4,25.0,12.5,0000.0,0015.45,0007.14,0006.19
2023-02-14 04:39:00,,0806.5,5.00,0.00,23.3,21.2,00.0,32.4,25.0,12.6,0000.0,0014.61,0006.66,0005.77
2023-02-14 04:40:00,,0806.4,5.01,0.00,23.3,21.2,00.0,32.3,24.9,12.6,0000.0,0013.32,0006.09,0005.30
2023-02-14 04:41:00,,0806.4,5.00,0.00,23.2,21.2,00.0,32.3,24.9,12.6,0000.0,0011.39,0005.40,0004.78
2023-02-14 04:42:00,,0806.3,4.99,0.00,23.2,21.2,00.0,32.3,25.0,12.5,0000.0,0010.15,0004.88,0004.32
2023-02-14 04:43:00,,0806.4,4.99,0.00,23.2,21.3,00.0,32.3,25.0,12.5,0000.0,0009.21,0004.56,0004.02
2023-02-14 04:44:00,,0806.4,5.00,0.00,23.2,21.3,00.0,32.2,25.0,12.6,0000.0,0008.91,0004.34,0003.85
2023-02-14 04:45:00,,0806.4,5.00,0.00,23.2,21.3,00.0,32.2,25.0,12.5,0000.0,0008.39,0004.08,0003.64
2023-02-14 04:46:00,,0806.3,5.01,0.00,23.2,21.4,00.0,32.2,25.0,12.5,0000.0,0007.91,0003.81,0003.43
2023-02-14 04:47:00,,0806.2,5.00,0.00,23.2,21.5,00.0,32.2,25.1,12.5,0000.0,0006.46,0003.53,0003.16
2023-02-14 04:48:00,,0806.3,5.00,0.00,23.2,21.6,00.0,32.2,25.1,12.5,0000.0,0005.69,0003.29,0002.85
2023-02-14 04:49:00,,0806.2,4.99,0.00,23.2,21.6,00.0,32.2,25.1,12.4,0000.0,0005.47,0003.21,0002.71
2023-02-14 04:50:00,,0806.2,5.00,0.00,23.2,21.6,00.0,32.2,25.1,12.5,0000.0,0005.03,0003.02,0002.46
2023-02-14 04:51:00,,0806.2,5.00,0.00,23.2,21.6,00.0,32.2,25.1,12.4,0000.0,0004.49,0002.89,0002.33
2023-02-14 04:52:00,,0806.2,5.00,0.00,23.2,21.6,00.0,32.2,25.1,12.4,0000.0,0004.86,0002.84,0002.25
2023-02-14 04:53:00,,0806.2,5.01,0.00,23.2,21.5,00.0,32.2,25.0,12.4,0000.0,0004.74,0002.82,0002.22
2023-02-14 04:54:00,,0806.1,5.01,0.00,23.2,21.5,00.0,32.1,25.0,12.4,0000.0,0004.65,0002.77,0002.19
2023-02-14 04:55:00,,0806.1,4.99,0.00,23.2,21.4,00.0,32.1,24.9,12.4,0000.0,0004.55,0002.66,0002.08
2023-02-14 04:56:00,,0806.1,4.99,0.00,23.1,21.2,00.0,32.1,24.9,12.4,0000.0,0004.50,0002.59,0002.00
2023-02-14 04:57:00,,0806.0,4.99,0.00,23.1,21.1,00.0,32.1,24.8,12.4,0000.0,0004.32,0002.49,0001.92
2023-02-14 04:58:00,,0806.0,5.02,0.00,23.1,21.2,00.0,32.1,24.8,12.5,0000.0,0004.18,0002.46,0001.90
2023-02-14 04:59:00,,0806.0,5.01,0.00,23.1,21.2,00.0,32.1,24.9,12.5,0000.0,0004.28,0002.48,0001.92
